Preview of NWS' New Version of Forecast
This preview is not operational and should not be used for support decisions.

Regional Weather Roundup (RWR)

Issued by National Weather Service (NWS)

                            
000
ASUS42 KTBW 201317
RWRFL 
FLORIDA REGIONAL WEATHER ROUNDUP
NATIONAL WEATHER SERVICE TAMPA BAY RUSKIN FL
800 AM EST WED FEB 20 2019

NOTE: "FAIR" INDICATES FEW OR NO CLOUDS BELOW 12,000 FEET WITH NO
SIGNIFICANT WEATHER AND/OR OBSTRUCTIONS TO VISIBILITY.

FLZ001>010-012>015-112-114-115-201400-
PANHANDLE FLORIDA
  
CITY           SKY/WX    TMP DP  RH WIND       PRES   REMARKS
PENSACOLA      FOG       62  61  96 E15       30.01S VSB 3/4          
PENSACOLA NAS  FOG       63  63 100 E13G22    30.01R VSB 1/8          
MILTON NAS     FOG       57  57 100 E8        30.03  VSB 1            
CRESTVIEW      CLOUDY    56  55  97 VRB3      30.05F FOG              
DUKE FIELD     CLOUDY    57  57 100 E7        30.03F FOG              
VALPARAISO     CLOUDY    60  60 100 E9        30.03S FOG              
MARY ESTHER    FOG       61  61 100 SE14      30.02  VSB 5/8          
PANAMA CITY    FOG       59  58  96 E12       30.06F VSB 1            
TYNDALL AFB    FOG       61  59  94 E8        30.07S VSB 3/4          
APALACHICOLA   FOG       61  60  97 E12G18    30.07S VSB 1/4          

STATION/POSITION SKY/WX   TEMP    WIND        PRES    WAVE   SWELL
                          AIR SEA DIR/SP/G            HT/PER HT/PER
                          (F)     (DEG/KT/KT) (MB)    (FT/S) (FT/S)
30.1N   87.6W              66     120/ 17/ 21   N/A     6/ 7
29.2N   88.2W                     130/ 12/ 16 1014.8R   5/ 7   3/ 7
PANAMA CITY BEAC           60 62   90/ 10/ 13 1018.3F
TOWER C                    62     100/ 18/ 19 1018.7R

$$
FLZ011-016>038-118-127-128-134-139-239-201400-
NORTH FLORIDA
  
CITY           SKY/WX    TMP DP  RH WIND       PRES   REMARKS
MARIANNA       CLOUDY    53  53 100 E6        30.11S FOG              
TALLAHASSEE    CLOUDY    56  55  97 E8        30.11S                  
PERRY          CLOUDY    58  57  94 NE3       30.14R                  
LIVE OAK       CLOUDY    57  57 100 CALM      30.14S                  
CROSS CITY     CLOUDY    60  60  97 NE6       30.13R FOG              
LAKE CITY      CLOUDY    55  55 100 CALM      30.15R FOG              
GAINESVILLE    FOG       65  62  90 N5        30.16R VSB 1/4          
WILLISTON        N/A    N/A N/A N/A MISG        N/A                   
PALATKA        FOG      N/A N/A N/A E3        30.13R VSB<1/4          
MAYPORT NAS    FOG       60  60 100 N7        30.15R VSB 1            
JACKSONVILLE   CLOUDY    60  59  96 N5        30.15R FOG              
JAX NAS        FOG       62  61  96 N8        30.16R VSB 1/2          
JAX CECIL      FOG       61  59  94 N5        30.15R VSB 1/2          
FERNANDINA BEA CLOUDY    59  59  99 N5        30.16R FOG              
ST AUGUSTINE   FOG       62  62 100 NE3       30.15R VSB 1/4          
PALM COAST     SUNNY     63  63 100 VRB3      30.13S FOG              

STATION/POSITION SKY/WX   TEMP    WIND        PRES    WAVE   SWELL
                          AIR SEA DIR/SP/G            HT/PER HT/PER
                          (F)     (DEG/KT/KT) (MB)    (FT/S) (FT/S)
SHELL POINT      NOT AVBL
KEATON BEACH               59      50/  7/ 10 1020.0R
CEDAR KEY                  69      90/  7/  8 1019.7R
FERNANDINA                 59 60  350/  3/  5 1021.9R
30.7N   81.3W                 58                N/A     7/10   2/11
MAYPORT                    60 60   30/  4/  6 1021.0R
31.4N   80.9W              63 58  110/  6/  8 1020.4S   7/10   7/10
ST AUGUSTINE               60 61  360/  5/  6 1020.7R

$$
FLZ040-043>046-052-053-057-058-063-144-201400-
INTERIOR CENTRAL FLORIDA
  
CITY           SKY/WX    TMP DP  RH WIND       PRES   REMARKS
OCALA          FAIR      69  67  93 SE7       30.12R                  
LEESBURG       PTSUNNY   70  68  93 E6        30.13R                  
SANFORD        FAIR      69  69 100 SE7       30.13R                  
ORLANDO EXEC   PTSUNNY   71  69  93 SE8       30.13R                  
ORLANDO INTL   PTSUNNY   71  68  90 SE7       30.13R                  
KISSIMMEE      CLOUDY    72  70  94 SE7       30.14R                  
WINTER HAVEN   CLOUDY    75  70  84 VRB5      30.14R                  
LAKELAND       MOSUNNY   72  70  94 SE7       30.13                   
BARTOW         PTSUNNY   72  70  94 SE5       30.12S                  
SEBRING        FAIR      72  70  92 SE7       30.12S                  
OKEECHOBEE       N/A     72  70  94 CALM      30.12R                  

$$
FLZ041-047-054-059-064-141-147-201400-
EAST CENTRAL FLORIDA
  
CITY           SKY/WX    TMP DP  RH WIND       PRES   REMARKS
ORMOND BEACH   SUNNY     70  66  88 SE6       30.13R FOG              
DAYTONA BEACH  FAIR      70  69  97 VRB5      30.14R                  
DELAND         FAIR      68  66  94 SE6       30.13R                  
NEW SMYRNA BEA SUNNY     66  64  94 SE6       30.15R FOG              
JFK SPACE CTR  FAIR     N/A N/A N/A SE7       30.15R                  
TITUSVILLE     PTSUNNY   73  72  94 SE6       30.14R                  
CAPE CANAVERAL FAIR      69  68  94 SE8       30.12R                  
PATRICK AFB    FAIR      70  70 100 SE9       30.13R                  
MELBOURNE      FAIR      75  69  81 SE12      30.13R                  
VERO BEACH     CLOUDY    75  69  81 SE14      30.14R                  
FT PIERCE      CLOUDY    74  68  81 SE12      30.13R                  
STUART         CLOUDY    77  70  78 SE16G23   30.14R                  

STATION/POSITION SKY/WX   TEMP    WIND        PRES    WAVE   SWELL
                          AIR SEA DIR/SP/G            HT/PER HT/PER
                          (F)     (DEG/KT/KT) (MB)    (FT/S) (FT/S)
28.5N   80.2W              72     140/ 14/ 17 1020.7R   6/ 9   5/ 9
28.9N   78.5W              75 75  130/ 19/ 23 1022.5R  10/ 9   7/ 9
TRIDENT PIER               69 68  110/  4/  8 1021.5R
28.4N   80.5W                 67                N/A     4/ 8   2/11

$$
FLZ050-056-061-142-242-148-248-149-249-151-251-155-255-
160-260-201400-
WEST CENTRAL FLORIDA
  
CITY           SKY/WX    TMP DP  RH WIND       PRES   REMARKS
CRYSTAL RIVER  CLOUDY    68  68 100 SE3       30.10R                  
INVERNESS      CLOUDY    68  68 100 SE6       30.11S FOG              
BROOKSVILLE    CLOUDY    72  69  90 SE7       30.11R                  
CLEARWATER AIR FAIR      72  68  88 SE9       30.09R                  
ST PETE CLEARW FAIR      72  68  87 SE13      30.09R                  
TAMPA INTL     PTSUNNY   73  69  87 VRB7      30.10R                  
TAMPA EXEC     CLOUDY    72  68  88 SE8       30.11S                  
PLANT CITY     CLOUDY    73  70  88 SE7       30.13S                  
PETER O KNIGHT CLOUDY    73  73 100 SE10      30.10S                  
ST PETERSBURG  FAIR      72  69  90 SE9       30.08R                  
SARASOTA       FAIR      73  70  90 SE12      30.08R                  
VENICE         PTSUNNY   72  72 100 E7        30.11R                  

STATION/POSITION SKY/WX   TEMP    WIND        PRES    WAVE   SWELL
                          AIR SEA DIR/SP/G            HT/PER HT/PER
                          (F)     (DEG/KT/KT) (MB)    (FT/S) (FT/S)
27.3N   84.2W                 72                N/A     4/ 7
CLEARWATER BEACH                  120/ 10/ 15 1018.8R
MIDDLE TAMPA BAY           71     150/ 12/ 13 1019.1R
VENICE                     72 69  110/  5/  7   N/A

$$
FLZ066-069-070-075>078-162-262-165-265-201400-
SOUTHWEST FLORIDA AND KEYS
  
CITY           SKY/WX    TMP DP  RH WIND       PRES   REMARKS
PUNTA GORDA    FAIR      71  69  93 SE6       30.12R                  
FT MYERS       FAIR      73  71  93 SE6       30.10R                  
SOUTHWEST INTL FAIR      71  70  96 SE3       30.11R                  
NAPLES         FAIR      74  71  91 E7        30.10R                  
MARCO ISLAND   CLOUDY   N/A N/A N/A NE5       30.11R                  
IMMOKALEE      FAIR      73  70  88 E5        30.09R                  
MARATHON       FAIR      80  71  74 SE13G22   30.08R                  
KEY WEST NAS   FAIR      80  71  74 SE15      30.07R                  
KEY WEST INTL  FAIR      79  71  76 SE14      30.08R                  

STATION/POSITION SKY/WX   TEMP    WIND        PRES    WAVE   SWELL
                          AIR SEA DIR/SP/G            HT/PER HT/PER
                          (F)     (DEG/KT/KT) (MB)    (FT/S) (FT/S)
NAPLES                     74 72  100/  3/  6 1019.2R
26.0N   85.6W              78 80  140/ 19/ 25 1015.5R   6/ 7
DRY TORTUGAS               78     140/ 14/ 15 1018.0R
SAND KEY                   78                 1018.1R
SOMBRERO KEY               78                 1017.9R
LONG KEY                   76 77  140/ 22/ 27 1018.5R
MOLASSES REEF              77 78  130/ 24/ 26 1018.7

$$
FLZ067-068-071>074-168-172>174-201400-
SOUTHEAST FLORIDA 
  
CITY           SKY/WX    TMP DP  RH WIND       PRES   REMARKS
W PALM BEACH   PTSUNNY   78  69  73 SE22      30.13R                  
BOCA RATON     CLOUDY    77  70  78 SE12G24   30.12R                  
FT LAUDER-EXEC CLOUDY    77  72  84 SE15      30.11R                  
FT LAUDERDALE  CLOUDY    78  73  84 SE20      30.11R                  
POMPANO BEACH  CLOUDY    78  71  79 SE20G29   30.12R                  
PEMBROKE PINES CLOUDY    76  70  82 SE10G21   30.13R                  
OPA LOCKA      CLOUDY    77  70  79 SE12      30.12R                  
MIAMI          CLOUDY    77  72  84 SE14      30.11R                  
WEST KENDALL   PTSUNNY   79  71  76 SE12G22   30.11R                  
HOMESTEAD      CLOUDY    77  71  80 E13G21    30.09R                  

STATION/POSITION SKY/WX   TEMP    WIND        PRES    WAVE   SWELL
                          AIR SEA DIR/SP/G            HT/PER HT/PER
                          (F)     (DEG/KT/KT) (MB)    (FT/S) (FT/S)
PORT EVERGLADES            78     130/ 11/ 16 1019.8
VIRGINIA KEY               78 78  110/ 16/ 20 1018.8R
LAKE WORTH                 77 77  140/ 21/ 28 1021.1R
FOWEY ROCKS                77 77  120/ 27/ 28 1019.6R
SETTLEMENT POINT           76     130/ 15/ 17 1021.0R

$$